Location: Unspecified
(0.0000°N, 0.0000°E)
Time: 04:13:40
(UTC+00:00)

deb Delta 104 - Pass Details

Date: 11 March 2026
Orbit: 1403 x 1485 km, 102.0° (Epoch: 15 April)

Event Time Altitude Azimuth Distance (km) Brightness Sun altitude
Rises 04:41:37 0° 60° (ENE) 4,559 ? -22.1°
Reaches altitude 10° 04:47:10 10° 90° (E) 3,564 ? -20.7°
Maximum altitude 04:49:37 12° 108° (ESE) 3,435 ? -20.1°
Drops below altitude 10° 04:52:03 10° 125° (SE) 3,548 ? -19.5°
Sets 04:57:29 0° 155° (SSE) 4,509 ? -18.1°
